MCF1TR LJLJ-LIPZ

Flight info

Callsign MCF1TR
Flight time 0h 30m
Altitude 27000
Route LUPIX2E LUPIX DCT ROSKA/N0396F190 M859 TULIK Z71 BASOG
Aircraft B738/M-SDE2E3FGHIRWXY/LB1

Departure

Time 2026-04-22 12:21
Airport Ljubljana Jože Pučnik Airport (LJLJ)

Arrival

Time 2026-04-22 12:52
Airport Venice Marco Polo Airport (LIPZ)
Time Latitude Longitude Altitude Speed Heading
2026-04-22 11:49 46.23025 14.45417 1257 ft 0 kts 36°
2026-04-22 12:12 46.23016 14.45408 1257 ft 4 kts 36°
2026-04-22 12:12 46.22996 14.45387 1257 ft 4 kts 31°
2026-04-22 12:12 46.22975 14.45378 1257 ft 4 kts 332°
2026-04-22 12:12 46.22958 14.45402 1257 ft 2 kts 306°
2026-04-22 12:13 46.22954 14.45408 1257 ft 0 kts 306°
2026-04-22 12:16 46.22959 14.45399 1257 ft 4 kts 305°
2026-04-22 12:16 46.22988 14.45341 1257 ft 11 kts 306°
2026-04-22 12:16 46.23035 14.45248 1261 ft 9 kts 306°
2026-04-22 12:17 46.23025 14.45175 1260 ft 9 kts 220°
2026-04-22 12:17 46.22977 14.45124 1264 ft 8 kts 216°
2026-04-22 12:17 46.22971 14.45050 1263 ft 8 kts 297°
2026-04-22 12:17 46.23003 14.44982 1262 ft 9 kts 306°
2026-04-22 12:18 46.23049 14.44892 1267 ft 12 kts 306°
2026-04-22 12:18 46.23099 14.44794 1265 ft 12 kts 306°
2026-04-22 12:18 46.23152 14.44691 1269 ft 15 kts 307°
2026-04-22 12:18 46.23215 14.44569 1271 ft 15 kts 306°
2026-04-22 12:19 46.23275 14.44451 1274 ft 14 kts 306°
2026-04-22 12:19 46.23332 14.44339 1280 ft 14 kts 307°
2026-04-22 12:19 46.23387 14.44231 1282 ft 13 kts 301°
2026-04-22 12:19 46.23380 14.44113 1285 ft 13 kts 226°
2026-04-22 12:20 46.23296 14.44083 1284 ft 14 kts 173°
2026-04-22 12:20 46.23197 14.44146 1280 ft 18 kts 140°
2026-04-22 12:20 46.23180 14.44176 1279 ft 1 kts 126°
2026-04-22 12:20 46.23157 14.44220 1278 ft 21 kts 126°
2026-04-22 12:21 46.22918 14.44687 1268 ft 93 kts 127°
2026-04-22 12:21 46.22400 14.45696 1243 ft 154 kts 128°
2026-04-22 12:21 46.21711 14.47018 1715 ft 164 kts 128°
2026-04-22 12:21 46.21018 14.48346 2564 ft 161 kts 123°
2026-04-22 12:22 46.20359 14.49632 3367 ft 162 kts 121°
2026-04-22 12:22 46.19635 14.51053 3698 ft 190 kts 122°
2026-04-22 12:22 46.18725 14.52604 3912 ft 219 kts 140°
2026-04-22 12:22 46.17187 14.53239 4140 ft 249 kts 181°
2026-04-22 12:23 46.15550 14.52306 4611 ft 264 kts 217°
2026-04-22 12:23 46.14256 14.50312 5047 ft 279 kts 233°
2026-04-22 12:23 46.13129 14.48042 5713 ft 285 kts 236°
2026-04-22 12:23 46.12015 14.45673 6588 ft 286 kts 237°
2026-04-22 12:24 46.10876 14.43241 7309 ft 292 kts 237°
2026-04-22 12:24 46.09737 14.40838 8232 ft 289 kts 237°
2026-04-22 12:24 46.08579 14.38420 9011 ft 293 kts 236°
2026-04-22 12:24 46.07408 14.36002 9835 ft 296 kts 236°
2026-04-22 12:25 46.06223 14.33568 10414 ft 308 kts 236°
2026-04-22 12:25 46.04942 14.30950 10567 ft 333 kts 237°
2026-04-22 12:25 46.03556 14.28128 10787 ft 355 kts 236°
2026-04-22 12:25 46.02093 14.25137 10967 ft 376 kts 237°
2026-04-22 12:26 46.01075 14.23000 11051 ft 389 kts 237°
2026-04-22 12:26 45.99005 14.18645 11537 ft 404 kts 237°
2026-04-22 12:26 45.97396 14.15312 12264 ft 405 kts 237°
2026-04-22 12:26 45.95767 14.11986 12953 ft 408 kts 237°
2026-04-22 12:27 45.94110 14.08638 13498 ft 415 kts 237°
2026-04-22 12:27 45.92415 14.05239 14115 ft 419 kts 236°
2026-04-22 12:27 45.90725 14.01868 14910 ft 418 kts 236°
2026-04-22 12:27 45.89595 13.99621 15308 ft 421 kts 237°
2026-04-22 12:28 45.87910 13.96274 15874 ft 425 kts 237°
2026-04-22 12:28 45.86171 13.92824 16459 ft 428 kts 237°
2026-04-22 12:28 45.84420 13.89353 17137 ft 430 kts 236°
2026-04-22 12:28 45.82658 13.85866 17769 ft 432 kts 237°
2026-04-22 12:29 45.80910 13.82409 18362 ft 436 kts 237°
2026-04-22 12:29 45.79122 13.78879 18869 ft 440 kts 237°
2026-04-22 12:29 45.77318 13.75320 19390 ft 443 kts 237°
2026-04-22 12:29 45.75502 13.71742 19901 ft 445 kts 237°
2026-04-22 12:30 45.71842 13.64546 21013 ft 448 kts 237°
2026-04-22 12:30 45.69997 13.60925 21155 ft 453 kts 237°
2026-04-22 12:30 45.68129 13.57259 21165 ft 458 kts 237°
2026-04-22 12:31 45.66255 13.53592 21163 ft 457 kts 237°
2026-04-22 12:31 45.64380 13.49927 21162 ft 456 kts 237°
2026-04-22 12:31 45.62509 13.46277 21165 ft 456 kts 237°
2026-04-22 12:31 45.60637 13.42626 21164 ft 455 kts 237°
2026-04-22 12:32 45.58764 13.38979 21166 ft 456 kts 237°
2026-04-22 12:32 45.55013 13.31689 21154 ft 455 kts 237°
2026-04-22 12:32 45.53139 13.28051 21172 ft 455 kts 237°
2026-04-22 12:33 45.51266 13.24423 21169 ft 455 kts 237°
2026-04-22 12:33 45.49391 13.20793 21163 ft 455 kts 237°
2026-04-22 12:33 45.47514 13.17165 21167 ft 455 kts 237°
2026-04-22 12:33 45.45629 13.13527 21170 ft 455 kts 237°
2026-04-22 12:34 45.43760 13.09924 21077 ft 452 kts 237°
2026-04-22 12:34 45.41893 13.06330 20513 ft 445 kts 237°
2026-04-22 12:34 45.40060 13.02808 19918 ft 439 kts 237°
2026-04-22 12:34 45.38258 12.99349 19289 ft 433 kts 237°
2026-04-22 12:35 45.36472 12.95919 18667 ft 429 kts 237°
2026-04-22 12:35 45.34707 12.92532 17989 ft 425 kts 236°
2026-04-22 12:35 45.32950 12.89168 17328 ft 421 kts 236°
2026-04-22 12:35 45.31225 12.85839 16698 ft 416 kts 238°
2026-04-22 12:36 45.29704 12.82389 16084 ft 409 kts 243°
2026-04-22 12:36 45.28345 12.78980 15493 ft 405 kts 244°
2026-04-22 12:36 45.26885 12.75557 14883 ft 404 kts 238°
2026-04-22 12:36 45.25248 12.72335 14277 ft 402 kts 235°
2026-04-22 12:37 45.23559 12.69170 13592 ft 401 kts 235°
2026-04-22 12:37 45.21885 12.66019 12978 ft 398 kts 236°
2026-04-22 12:37 45.20277 12.62937 12862 ft 381 kts 236°
2026-04-22 12:37 45.18740 12.59947 12682 ft 368 kts 237°
2026-04-22 12:38 45.17261 12.57054 12524 ft 357 kts 237°
2026-04-22 12:38 45.15828 12.54251 12375 ft 346 kts 237°
2026-04-22 12:38 45.14549 12.51450 12222 ft 332 kts 250°
2026-04-22 12:38 45.14072 12.48372 12094 ft 313 kts 272°
2026-04-22 12:39 45.14304 12.45359 11857 ft 305 kts 290°
2026-04-22 12:39 45.15750 12.39720 11439 ft 306 kts 295°
2026-04-22 12:39 45.16520 12.36891 11190 ft 309 kts 294°
2026-04-22 12:40 45.17276 12.34053 10969 ft 308 kts 294°
2026-04-22 12:40 45.18016 12.31228 10744 ft 303 kts 294°
2026-04-22 12:40 45.18736 12.28458 10523 ft 297 kts 294°
2026-04-22 12:40 45.19324 12.25677 10298 ft 296 kts 280°
2026-04-22 12:41 45.19249 12.22763 10170 ft 292 kts 268°
2026-04-22 12:41 45.19065 12.19951 10121 ft 281 kts 269°
2026-04-22 12:41 45.18904 12.17165 9730 ft 283 kts 270°
2026-04-22 12:41 45.18752 12.14432 9572 ft 273 kts 270°
2026-04-22 12:42 45.18582 12.11771 9156 ft 271 kts 263°
2026-04-22 12:42 45.17797 12.09361 8755 ft 274 kts 232°
2026-04-22 12:42 45.16432 12.07480 8386 ft 272 kts 223°
2026-04-22 12:42 45.15024 12.05731 8134 ft 268 kts 225°
2026-04-22 12:43 45.13992 12.03599 7828 ft 260 kts 259°
2026-04-22 12:43 45.13929 12.01136 7608 ft 247 kts 287°
2026-04-22 12:43 45.14545 11.98942 7475 ft 235 kts 307°
2026-04-22 12:43 45.15534 11.97154 7374 ft 231 kts 315°
2026-04-22 12:44 45.16798 11.95701 7287 ft 240 kts 341°
2026-04-22 12:44 45.18460 11.95516 7112 ft 249 kts 15°
2026-04-22 12:44 45.20013 11.96653 6869 ft 256 kts 32°
2026-04-22 12:44 45.21504 11.98063 6520 ft 259 kts 34°
2026-04-22 12:45 45.22947 11.99634 6146 ft 261 kts 39°
2026-04-22 12:45 45.24320 12.01313 5844 ft 261 kts 41°
2026-04-22 12:45 45.25662 12.03036 5561 ft 259 kts 42°
2026-04-22 12:45 45.26988 12.04757 5317 ft 256 kts 43°
2026-04-22 12:46 45.28294 12.06453 5082 ft 252 kts 43°
2026-04-22 12:46 45.29586 12.08129 4789 ft 251 kts 44°
2026-04-22 12:46 45.30872 12.09797 4519 ft 249 kts 44°
2026-04-22 12:46 45.32148 12.11448 4239 ft 248 kts 44°
2026-04-22 12:47 45.33421 12.13097 3952 ft 247 kts 44°
2026-04-22 12:47 45.34688 12.14737 3783 ft 242 kts 44°
2026-04-22 12:47 45.35902 12.16306 3588 ft 233 kts 44°
2026-04-22 12:47 45.37083 12.17834 3300 ft 226 kts 44°
2026-04-22 12:48 45.38228 12.19317 2992 ft 219 kts 44°
2026-04-22 12:48 45.39337 12.20751 2697 ft 212 kts 45°
2026-04-22 12:48 45.40408 12.22136 2413 ft 206 kts 45°
2026-04-22 12:48 45.41448 12.23480 2128 ft 195 kts 45°
2026-04-22 12:49 45.42425 12.24743 1867 ft 184 kts 45°
2026-04-22 12:49 45.43349 12.25937 1632 ft 175 kts 45°
2026-04-22 12:49 45.44215 12.27055 1417 ft 163 kts 46°
2026-04-22 12:49 45.45024 12.28102 1194 ft 149 kts 45°
2026-04-22 12:50 45.45769 12.29064 994 ft 142 kts 47°
2026-04-22 12:50 45.46501 12.30012 821 ft 142 kts 47°
2026-04-22 12:50 45.47227 12.30950 638 ft 140 kts 46°
2026-04-22 12:50 45.47966 12.31903 436 ft 147 kts 45°
2026-04-22 12:51 45.48726 12.32878 260 ft 147 kts 46°
2026-04-22 12:51 45.49477 12.33852 67 ft 146 kts 46°
2026-04-22 12:51 45.50193 12.34781 14 ft 121 kts 44°
2026-04-22 12:51 45.50666 12.35365 14 ft 60 kts 28°
2026-04-22 12:52 45.50856 12.35443 15 ft 13 kts 13°
2026-04-22 12:52 45.50931 12.35408 16 ft 13 kts 284°
2026-04-22 12:52 45.50879 12.35309 16 ft 14 kts 222°
2026-04-22 12:52 45.50802 12.35211 16 ft 16 kts 222°
2026-04-22 12:53 45.50712 12.35096 13 ft 19 kts 222°
2026-04-22 12:53 45.50621 12.34970 13 ft 18 kts 240°
2026-04-22 12:53 45.50609 12.34797 14 ft 17 kts 267°
2026-04-22 12:53 45.50604 12.34628 15 ft 17 kts 268°
2026-04-22 12:54 45.50598 12.34465 15 ft 15 kts 267°
2026-04-22 12:54 45.50537 12.34352 15 ft 15 kts 210°
2026-04-22 12:54 45.50493 12.34265 15 ft 10 kts 264°
2026-04-22 12:54 45.50491 12.34215 15 ft 0 kts 267°